White Plains, CT

7:37 AM EST on November 19, 2019 (GMT -0500)
Westchester County

Weather History for KHPN - September, 2019

Change the Weather History Date:

Wednesday, September 18, 2019

  Actual Average Record
Temperature  
Mean Temperature 61 °F -  
Max Temperature 69 °F 71 °F 82 °F (1992)
Min Temperature 52 °F 54 °F 42 °F (1990)
Degree Days  
Heating Degree Days 4    
Growing Degree Days 11 (Base 50)    
Moisture  
Dew Point 46 °F    
Average Humidity 64    
Maximum Humidity 86    
Minimum Humidity 39    
Precipitation  
Precipitation 0.00 in - - ()
Sea Level Pressure  
Sea Level Pressure 30.24 in    
Wind  
Wind Speed 5 mph ()    
Max Wind Speed 9 mph    
Max Gust Speed -    
Visibility 10.0 miles    
Events      
Averages and records for this station are not official NWS values.
T = Trace of Precipitation, MM = Missing Value Source: Averaged Metar Reports

Daily Weather History Graph

Daily Weather History Graph

Search for Another Location

Airport or City:

Astronomy

Sep. 18, 2019 Rise Set
Actual Time 6:38 AM EDT 6:59 PM EDT
Civil Twilight 6:10 AM EDT 7:26 PM EDT
Nautical Twilight 5:38 AM EDT 7:59 PM EDT
Astronomical Twilight 5:04 AM EDT 8:32 PM EDT
Moon 9:29 PM EDT (9/18) 10:40 AM EDT (9/18)
Length of Visible Light 13h 16m
Length of Day
12h 21m
Waning Gibbous, 82% of the Moon is Illuminated
Sep 18
Waning Gibbous
Sep 21
Last Quarter
Sep 28
New
Oct 5
First Quarter
Oct 13
Full

Hourly Weather History & Observations

Time (EDT) Temp. Dew Point Humidity Pressure Visibility Wind Dir Wind Speed Gust Speed Precip Events Conditions
12:56 AM 55.0 °F 48.0 °F 77% 30.17 in 10.0 mi Calm Calm - N/A   Clear
1:56 AM 54.0 °F 48.9 °F 83% 30.17 in 10.0 mi NW 4.6 mph - N/A   Clear
2:56 AM 54.0 °F 50.0 °F 86% 30.17 in 10.0 mi NW 4.6 mph - N/A   Partly Cloudy
3:56 AM 55.0 °F 48.9 °F 80% 30.17 in 10.0 mi NNE 4.6 mph - N/A   Partly Cloudy
4:56 AM 55.0 °F 48.0 °F 77% 30.18 in 10.0 mi NNE 6.9 mph - N/A   Partly Cloudy
5:56 AM 55.0 °F 48.0 °F 77% 30.19 in 10.0 mi NNE 8.1 mph - N/A   Scattered Clouds
6:56 AM 54.0 °F 48.0 °F 80% 30.22 in 10.0 mi NNE 5.8 mph - N/A   Scattered Clouds
7:56 AM 55.0 °F 48.9 °F 80% 30.24 in 10.0 mi NNE 6.9 mph - N/A   Mostly Cloudy
8:56 AM 57.9 °F 48.9 °F 72% 30.25 in 10.0 mi North 8.1 mph - N/A   Mostly Cloudy
9:56 AM 61.0 °F 50.0 °F 67% 30.26 in 10.0 mi ENE 8.1 mph - N/A   Mostly Cloudy
10:56 AM 63.0 °F 48.0 °F 58% 30.26 in 10.0 mi ENE 8.1 mph - N/A   Mostly Cloudy
11:56 AM 64.0 °F 48.0 °F 56% 30.25 in 10.0 mi ENE 9.2 mph - N/A   Mostly Cloudy
12:56 PM 66.0 °F 46.9 °F 50% 30.24 in 10.0 mi East 8.1 mph - N/A   Mostly Cloudy
1:56 PM 66.0 °F 44.1 °F 45% 30.24 in 10.0 mi Variable 6.9 mph - N/A   Mostly Cloudy
2:56 PM 66.0 °F 42.1 °F 42% 30.23 in 10.0 mi NE 6.9 mph - N/A   Scattered Clouds
3:56 PM 66.0 °F 43.0 °F 43% 30.24 in 10.0 mi ENE 8.1 mph - N/A   Mostly Cloudy
4:56 PM 68.0 °F 42.1 °F 39% 30.24 in 10.0 mi ENE 5.8 mph - N/A   Scattered Clouds
5:56 PM 64.9 °F 44.1 °F 47% 30.25 in 10.0 mi NE 6.9 mph - N/A   Partly Cloudy
6:56 PM 61.0 °F 44.1 °F 54% 30.25 in 10.0 mi East 3.5 mph - N/A   Partly Cloudy
7:56 PM 57.9 °F 43.0 °F 58% 30.27 in 10.0 mi East 3.5 mph - N/A   Clear
8:56 PM 55.9 °F 43.0 °F 62% 30.29 in 10.0 mi ENE 4.6 mph - N/A   Clear
9:56 PM 55.9 °F 42.1 °F 60% 30.30 in 10.0 mi NNE 5.8 mph - N/A   Clear
10:56 PM 54.0 °F 42.1 °F 64% 30.32 in 10.0 mi ENE 6.9 mph - N/A   Clear
11:56 PM 52.0 °F 42.1 °F 69% 30.33 in 10.0 mi ENE 6.9 mph - N/A   Clear